Location: White Mills Observatory
(37.5374°N, 86.0303°W)
Time: 19:42:19
(UTC-04:00)

Amateur Radio Satellites - All Passes

Search period start: 03 July 2015 19:12
Search period end: 04 July 2015 19:12
Location: White Mills Observatory, 37.5374°N, 86.0303°W

Satellite Date Start Highest point End Downlink Frequencies (MHz)
Time Altitude Azimuth
CUBESAT XI-V 03 Jul 19:24:41 19:28:53 33° 96° (E) 19:33:05 437.345
SRMSAT 03 Jul 19:54:20 19:56:12 11° 172° (S) 19:58:07 437.500
GOMX 1 03 Jul 19:55:16 19:57:39 14° 67° (ENE) 20:00:14 467.674
STRAND 1 03 Jul 19:55:35 19:59:36 23° 94° (E) 20:03:43 437.568
SO-50 03 Jul 19:58:28 20:00:30 12° 321° (NW) 20:02:22 436.795
PRISM 03 Jul 20:04:45 20:08:08 24° 95° (E) 20:11:34 437.425
O/OREOS (USA 219) 03 Jul 20:05:11 20:07:36 14° 260° (W) 20:09:48 437.305
CUTE-I 03 Jul 20:08:18 20:13:02 31° 264° (W) 20:17:44 437.470
BRITE-PL 03 Jul 20:12:06 20:17:02 35° 72° (ENE) 20:21:47 437.365/2234.400
DANDE 03 Jul 20:19:20 20:22:03 44° 78° (ENE) 20:24:32 436.750
DOVE 4 03 Jul 20:42:26 20:46:19 25° 71° (ENE) 20:50:08 437.250
Cubesat XI-IV 03 Jul 20:44:23 20:47:24 14° 270° (W) 20:50:06 437.490
GONETS M04 03 Jul 20:47:50 20:55:55 42° 74° (ENE) 21:04:05
SEEDS 03 Jul 20:48:12 20:50:51 17° 68° (ENE) 20:53:38 437.485
JUGNU 03 Jul 20:51:57 20:54:15 12° 187° (S) 20:56:29 437.505
AAUSAT CUBESAT 2 03 Jul 21:01:50 21:04:20 16° 68° (ENE) 21:06:58 437.432
CUBESAT XI-V 03 Jul 21:02:28 21:06:10 23° 291° (WNW) 21:09:43 437.345
HO-68 03 Jul 21:03:48 21:10:42 55° 70° (ENE) 21:17:40 435.675
CUSAT 1 03 Jul 21:05:41 21:06:57 12° 267° (W) 21:08:07 437.405
M-CUBED/EXP-1 PRIME 03 Jul 21:16:21 21:17:13 11° 95° (E) 21:18:24 437.505
COMPASS 1 03 Jul 21:25:43 21:29:29 35° 73° (ENE) 21:33:19 437.405
GOMX 1 03 Jul 21:30:10 21:35:24 67° 259° (W) 21:40:18 467.674
CUTE 1.7 + AOD 2 03 Jul 21:32:22 21:36:32 70° 76° (ENE) 21:40:45 437.475
STRAND 1 03 Jul 21:34:12 21:38:55 37° 290° (WNW) 21:43:35 437.568
CINEMA 3 03 Jul 21:34:36 21:38:46 37° 73° (ENE) 21:42:49 145.822/145.860
CANX-2 03 Jul 21:35:33 21:39:45 86° 79° (E) 21:44:00 2200.000
Cosmos 2499 03 Jul 21:37:58 21:42:39 17° 65° (ENE) 21:48:00 435.465 / 435.565
FUNcube-1 03 Jul 21:39:10 21:39:40 10° 66° (ENE) 21:40:26 145.935
PRISM 03 Jul 21:40:03 21:43:31 25° 290° (WNW) 21:46:53 437.425
SRMSAT 03 Jul 21:41:46 21:44:32 13° 182° (S) 21:47:18 437.500
UWE-3 03 Jul 21:46:49 21:49:37 18° 69° (ENE) 21:52:32 435.000/436.395/437.385
BRITE-PL 03 Jul 21:50:49 21:55:33 28° 265° (W) 22:00:00 437.365/2234.400
AUBIESAT-1 03 Jul 22:14:47 22:18:52 44° 104° (ESE) 22:23:14 437.475
DOVE 4 03 Jul 22:19:33 22:23:59 32° 264° (W) 22:28:09 437.250
SEEDS 03 Jul 22:22:32 22:26:23 35° 263° (W) 22:30:14 437.485
DX 1 03 Jul 22:22:39 22:24:44 14° 66° (ENE) 22:27:01 434.975-435.025
CUBEBUG 2 03 Jul 22:28:41 22:33:00 71° 76° (ENE) 22:37:13 437.445
ZACube-1 03 Jul 22:34:57 22:39:00 48° 75° (ENE) 22:43:03 437.345
AAUSAT CUBESAT 2 03 Jul 22:35:49 22:39:39 37° 263° (W) 22:43:30 437.432
UKube-1 03 Jul 22:43:39 22:46:51 21° 69° (ENE) 22:50:10 .
GONETS M04 03 Jul 22:44:51 22:52:42 38° 272° (W) 23:00:23
Oscar 11 03 Jul 22:45:25 22:49:41 69° 259° (WSW) 22:53:59 145.826/435.025
M-CUBED/EXP-1 PRIME 03 Jul 22:48:08 22:52:21 65° 289° (WNW) 22:56:50 437.505
HO-68 03 Jul 22:53:00 22:58:50 26° 267° (W) 23:04:28 435.675
AISAT 03 Jul 22:55:44 22:58:39 18° 68° (ENE) 23:01:43 437.250
DELFI C3 03 Jul 22:56:59 23:00:58 72° 259° (W) 23:04:59 145.870
HUMSAT D 03 Jul 23:00:58 23:04:46 39° 73° (ENE) 23:08:37 437.325/437.525
COMPASS 1 03 Jul 23:02:39 23:05:19 16° 268° (W) 23:07:50 437.405
TIGRISAT 03 Jul 23:08:02 23:09:04 11° 89° (E) 23:10:24 435.000
50 SAT 03 Jul 23:08:30 23:11:27 22° 71° (ENE) 23:14:30 437.505
FUNcube-1 03 Jul 23:11:23 23:15:34 62° 260° (W) 23:19:42 145.935
CINEMA 3 03 Jul 23:12:58 23:16:06 18° 267° (W) 23:19:02 145.822/145.860
CUBEBUG 1 03 Jul 23:16:42 23:19:12 15° 67° (ENE) 23:21:54 437.445
UWE-3 03 Jul 23:22:02 23:25:58 34° 263° (W) 23:29:47 435.000/436.395/437.385
ESTCUBE 1 03 Jul 23:24:10 23:27:37 22° 69° (ENE) 23:31:12 437.505/2401.250
Cosmos 2499 03 Jul 23:28:55 23:36:49 85° 264° (W) 23:45:20 435.465 / 435.565
VELOX 1 03 Jul 23:43:39 23:48:02 57° 74° (ENE) 23:52:26 145.980
UNISAT 6 03 Jul 23:45:00 23:48:54 31° 97° (E) 23:52:55 437.425
AUBIESAT-1 03 Jul 23:50:33 23:53:22 17° 296° (WNW) 23:56:08 437.475
DX 1 03 Jul 23:56:18 00:00:35 52° 260° (W) 00:04:53 434.975-435.025
QB50P2 04 Jul 00:01:52 00:04:50 19° 93° (E) 00:07:55 145.880/145.840
POPSAT HIP 1 04 Jul 00:02:50 00:05:45 19° 93° (E) 00:08:48 437.405
ZACube-1 04 Jul 00:13:58 00:15:42 12° 270° (W) 00:17:12 437.345
UKube-1 04 Jul 00:18:57 00:22:49 31° 263° (W) 00:26:40 .
SPROUT 04 Jul 00:20:59 00:24:12 21° 70° (ENE) 00:27:31 437.525
ANTELSAT 04 Jul 00:29:08 00:33:33 79° 283° (WNW) 00:38:01 437.575/2403.000
AISAT 04 Jul 00:30:44 00:34:57 39° 262° (W) 00:39:10 437.250
HUMSAT D 04 Jul 00:38:26 00:40:44 14° 269° (W) 00:42:51 437.325/437.525
QB50P1 04 Jul 00:41:02 00:45:09 54° 100° (E) 00:49:16 145.935-145.965
TIGRISAT 04 Jul 00:41:56 00:46:14 59° 285° (WNW) 00:50:37 435.000
50 SAT 04 Jul 00:43:01 00:46:02 21° 266° (W) 00:48:59 437.505
CUBEBUG 1 04 Jul 00:50:57 00:55:13 46° 261° (W) 00:59:30 437.445
NANOSAT C BR1 04 Jul 00:55:30 00:59:43 81° 101° (ESE) 01:03:54 145.865
ESTCUBE 1 04 Jul 01:00:16 01:04:20 31° 264° (W) 01:08:22 437.505/2401.250
DUCHIFAT 1 04 Jul 01:02:43 01:06:55 84° 284° (WNW) 01:11:06 145.980
TISAT 1 04 Jul 01:04:45 01:08:46 43° 74° (ENE) 01:12:49 437.305
POLYITAN 1 04 Jul 01:06:50 01:11:02 71° 284° (WNW) 01:15:13 437.675
RS-15 04 Jul 01:15:51 01:19:04 12° 99° (E) 01:23:26 29.354- 29.394
UNISAT 6 04 Jul 01:22:11 01:25:32 21° 290° (WNW) 01:28:50 437.425
BUGSAT 1 04 Jul 01:23:09 01:27:12 74° 284° (WNW) 01:31:12 437.445
VELOX 1 04 Jul 01:23:17 01:25:00 12° 270° (W) 01:26:27 145.980
Cosmos 2499 04 Jul 01:25:10 01:29:11 14° 278° (W) 01:32:39 435.465 / 435.565
SWISSCUBE 04 Jul 01:26:22 01:28:55 15° 65° (ENE) 01:31:40 437.505
ITUPSAT 1 04 Jul 01:31:17 01:33:52 15° 65° (ENE) 01:36:39 437.325
QB50P2 04 Jul 01:37:03 01:40:48 31° 288° (WNW) 01:44:29 145.880/145.840
POPSAT HIP 1 04 Jul 01:37:58 01:41:43 31° 288° (WNW) 01:45:24 437.405
PCSat 04 Jul 01:39:22 01:44:19 36° 54° (NE) 01:49:18 145.827
SPROUT 04 Jul 01:56:19 02:00:08 30° 264° (W) 02:03:55 437.525
QB50P1 04 Jul 02:18:56 02:20:36 12° 294° (WNW) 02:22:03 145.935-145.965
Oscar 19 04 Jul 02:26:39 02:30:53 26° 95° (E) 02:35:11 437.125/150
KKS-1 04 Jul 02:37:33 02:38:51 11° 65° (ENE) 02:40:24 437.445
TISAT 1 04 Jul 02:42:29 02:44:48 14° 269° (W) 02:46:54 437.305
Cosmos 2491 04 Jul 02:42:36 02:50:16 34° 71° (ENE) 02:58:02 435.465 / 435.565
BEESAT 04 Jul 02:46:02 02:50:49 89° 280° (W) 02:55:37 436.000
SO-50 04 Jul 02:47:48 02:52:40 54° 56° (NE) 02:57:26 436.795
SWISSCUBE 04 Jul 03:01:40 03:06:20 56° 260° (W) 03:11:04 437.505
AIST 1 04 Jul 03:01:54 03:04:37 16° 71° (ENE) 03:07:27
ITUPSAT 1 04 Jul 03:06:39 03:11:20 55° 260° (W) 03:16:04 437.325
YUBILEINY 04 Jul 03:15:59 03:22:18 24° 84° (E) 03:28:58 435.215
RS-15 04 Jul 03:18:58 03:29:43 71° 116° (ESE) 03:40:49 29.354- 29.394
PCSat 04 Jul 03:22:59 03:27:39 29° 251° (WSW) 03:32:13 145.827
STARS 04 Jul 03:28:46 03:32:18 25° 70° (ENE) 03:35:57 437.465
JAS-2 04 Jul 03:42:16 03:45:40 15° 89° (E) 03:49:44 435.910
AO-7 04 Jul 04:01:04 04:03:15 12° 86° (E) 04:06:14 29.400- 29.500
Gurwin Techsat 1B 04 Jul 04:05:40 04:10:59 70° 102° (ESE) 04:16:16 435.225
Oscar 19 04 Jul 04:05:41 04:10:17 33° 290° (WNW) 04:14:48 437.125/150
KKS-1 04 Jul 04:10:35 04:15:00 65° 258° (WSW) 04:19:26 437.445
ITAMSAT 1 04 Jul 04:15:21 04:20:36 82° 103° (ESE) 04:25:49 435.822/435.867
MOZHAYETS 4 04 Jul 04:25:20 04:28:07 17° 67° (ENE) 04:31:05
SO-50 04 Jul 04:29:38 04:32:48 17° 251° (WSW) 04:35:45 436.795
AIST 1 04 Jul 04:38:27 04:42:28 36° 268° (W) 04:46:24
Cosmos 2491 04 Jul 04:39:06 04:47:24 48° 270° (W) 04:55:34 435.465 / 435.565
HORYU 2 04 Jul 05:04:48 05:08:53 35° 97° (E) 05:13:01 437.375
STARS 04 Jul 05:04:56 05:08:41 26° 264° (W) 05:12:22 437.465
YUBILEINY 04 Jul 05:09:52 05:18:30 65° 281° (W) 05:27:08 435.215
JAS-2 04 Jul 05:24:41 05:31:24 88° 284° (WNW) 05:38:53 435.910
RS-15 04 Jul 05:33:19 05:43:09 35° 320° (NW) 05:53:07 29.354- 29.394
Cosmos 2504 04 Jul 05:44:21 05:48:48 19° 84° (E) 05:53:33 435.465 / 435.565
Gurwin Techsat 1B 04 Jul 05:47:31 05:50:26 14° 296° (WNW) 05:53:05 435.225
AO-7 04 Jul 05:49:15 05:57:38 74° 105° (ESE) 06:05:59 29.400- 29.500
ITAMSAT 1 04 Jul 05:57:26 05:59:29 12° 298° (WNW) 06:01:14 435.822/435.867
MOZHAYETS 4 04 Jul 06:00:38 06:05:01 44° 262° (W) 06:09:25
CUBESAT XI-V 04 Jul 06:26:20 06:30:12 27° 70° (ENE) 06:34:11 437.345
HORYU 2 04 Jul 06:42:02 06:45:19 20° 292° (WNW) 06:48:28 437.375
CUTE-I 04 Jul 06:48:50 06:51:19 14° 89° (E) 06:54:06 437.470
PRISM 04 Jul 06:54:00 06:56:16 15° 67° (ENE) 06:58:43 437.425
STRAND 1 04 Jul 07:09:33 07:13:51 28° 69° (ENE) 07:18:16 437.568
JAS-2 04 Jul 07:12:07 07:15:54 15° 297° (WNW) 07:19:30 435.910
YUBILEINY 04 Jul 07:15:28 07:17:32 11° 304° (NW) 07:18:49 435.215
Cubesat XI-IV 04 Jul 07:21:13 07:25:50 30° 95° (E) 07:30:31 437.490
BEESAT 3 04 Jul 07:31:16 07:34:24 22° 112° (ESE) 07:37:38 437.485
Cosmos 2504 04 Jul 07:33:35 07:40:28 61° 280° (W) 07:47:17 435.465 / 435.565
BEESAT 2 04 Jul 07:42:45 07:45:58 23° 112° (ESE) 07:49:18 435.950
AO-7 04 Jul 07:43:17 07:49:45 25° 302° (WNW) 07:55:55 29.400- 29.500
DANDE 04 Jul 07:45:39 07:48:51 14° 91° (E) 07:52:11 436.750
ISS 04 Jul 07:48:55 07:49:30 10° 128° (SE) 07:50:14 145.825
RS-15 04 Jul 07:54:09 08:00:31 16° 354° (N) 08:06:54 29.354- 29.394
CUBESAT XI-V 04 Jul 08:03:30 08:07:34 28° 265° (W) 08:11:37 437.345
VERMONT LUNAR 04 Jul 08:13:58 08:16:46 31° 153° (SSE) 08:19:36 437.305
CUSAT 1 04 Jul 08:24:22 08:30:35 40° 96° (E) 08:35:32 437.405
CUTE-I 04 Jul 08:26:38 08:31:58 66° 286° (WNW) 08:37:15 437.470
PRISM 04 Jul 08:27:25 08:31:23 42° 261° (W) 08:35:22 437.425
O/OREOS (USA 219) 04 Jul 08:34:14 08:38:42 85° 110° (ESE) 08:43:11 437.305
STRAND 1 04 Jul 08:48:25 08:52:59 31° 264° (W) 08:57:31 437.568
AIST 2 04 Jul 08:57:59 09:01:53 38° 115° (ESE) 09:05:52 435.215
Cubesat XI-IV 04 Jul 09:01:11 09:05:56 32° 291° (WNW) 09:10:35 437.490
AUBIESAT-1 04 Jul 09:01:47 09:04:46 33° 68° (ENE) 09:07:54 437.475
BEESAT 3 04 Jul 09:08:35 09:12:13 30° 308° (NW) 09:15:50 437.485
BEESAT 2 04 Jul 09:20:18 09:23:55 29° 308° (NW) 09:27:32 435.950
CUTE 1.7 + AOD 2 04 Jul 09:20:59 09:23:11 14° 91° (E) 09:25:35 437.475
ISS 04 Jul 09:22:19 09:25:32 66° 321° (NW) 09:28:46 145.825
CANX-2 04 Jul 09:23:48 09:26:35 17° 92° (E) 09:29:31 2200.000
DANDE 04 Jul 09:24:20 09:31:56 85° 277° (W) 09:37:47 436.750
GOMX 1 04 Jul 09:34:38 09:38:31 37° 97° (E) 09:42:24 467.674
M-CUBED/EXP-1 PRIME 04 Jul 09:35:30 09:38:45 61° 254° (WSW) 09:42:06 437.505
GONETS M04 04 Jul 09:46:00 09:54:22 53° 91° (E) 10:02:48
VERMONT LUNAR 04 Jul 09:50:30 09:53:35 64° 347° (NNW) 09:56:42 437.305
BRITE-PL 04 Jul 09:57:27 10:01:43 62° 285° (WNW) 10:05:48 437.365/2234.400
PHONESAT 2.4 04 Jul 10:02:59 10:06:15 43° 154° (SSE) 10:09:32 2401.200-2431.200
CUSAT 1 04 Jul 10:07:43 10:13:09 26° 284° (WNW) 10:17:28 437.405
SEEDS 04 Jul 10:08:23 10:12:25 41° 98° (E) 10:16:27 437.485
RS-15 04 Jul 10:10:12 10:18:54 24° 29° (NNE) 10:28:14 29.354- 29.394
Cosmos 2499 04 Jul 10:17:51 10:18:38 10° 80° (E) 10:20:03 435.465 / 435.565
DOVE 4 04 Jul 10:20:04 10:24:14 80° 103° (ESE) 10:28:24 437.250
AAUSAT CUBESAT 2 04 Jul 10:20:22 10:24:17 37° 97° (E) 10:28:12 437.432
HO-68 04 Jul 10:20:51 10:27:59 69° 103° (ESE) 10:35:07 435.675
CUBEBUG 2 04 Jul 10:22:38 10:25:12 16° 92° (E) 10:28:00 437.445
ZACube-1 04 Jul 10:27:59 10:28:38 10° 89° (E) 10:29:35 437.345
Oscar 11 04 Jul 10:35:10 10:38:41 24° 94° (E) 10:42:15 145.826/435.025
AIST 2 04 Jul 10:37:19 10:40:37 21° 312° (NW) 10:43:50 435.215
DELFI C3 04 Jul 10:38:57 10:41:37 17° 92° (E) 10:44:25 145.870
AUBIESAT-1 04 Jul 10:39:06 10:39:49 10° 265° (W) 10:40:21 437.475
UNISAT 6 04 Jul 10:42:51 10:46:07 22° 70° (ENE) 10:49:27 437.425
COMPASS 1 04 Jul 10:45:59 10:50:14 88° 293° (WNW) 10:54:28 437.405
QB50P2 04 Jul 10:54:27 10:56:04 12° 66° (ENE) 10:57:55 145.880/145.840
CUTE 1.7 + AOD 2 04 Jul 10:55:17 10:59:22 43° 286° (WNW) 11:03:25 437.475
POPSAT HIP 1 04 Jul 10:55:20 10:56:52 12° 66° (ENE) 10:58:39 437.405
CANX-2 04 Jul 10:58:43 11:02:39 35° 287° (WNW) 11:06:33 2200.000
ISS 04 Jul 11:00:56 11:02:28 13° 340° (NNW) 11:03:58 145.825
FUNcube-1 04 Jul 11:01:46 11:05:20 27° 95° (E) 11:09:01 145.935
CINEMA 3 04 Jul 11:07:53 11:12:01 65° 284° (WNW) 11:16:14 145.822/145.860
DANDE 04 Jul 11:12:42 11:15:29 12° 291° (WNW) 11:17:37 436.750
UWE-3 04 Jul 11:13:08 11:17:14 49° 99° (E) 11:21:26 435.000/436.395/437.385
GOMX 1 04 Jul 11:13:53 11:16:25 15° 292° (WNW) 11:18:46 467.674
ANTELSAT 04 Jul 11:26:14 11:30:31 71° 75° (ENE) 11:34:46 437.575/2403.000
VERMONT LUNAR 04 Jul 11:27:41 11:30:44 47° 4° (N) 11:33:48 437.305
QB50P1 04 Jul 11:31:58 11:35:43 31° 72° (ENE) 11:39:30 145.935-145.965
VELOX 1 04 Jul 11:38:08 11:39:50 12° 90° (E) 11:41:47 145.980
TIGRISAT 04 Jul 11:38:41 11:42:59 86° 257° (WSW) 11:47:15 435.000
PHONESAT 2.4 04 Jul 11:40:50 11:44:14 59° 350° (N) 11:47:40 2401.200-2431.200
GONETS M04 04 Jul 11:43:55 11:51:37 32° 290° (WNW) 11:59:05
SEEDS 04 Jul 11:45:16 11:47:54 16° 292° (WNW) 11:50:22 437.485
NANOSAT C BR1 04 Jul 11:45:57 11:49:59 45° 74° (ENE) 11:54:03 145.865
DX 1 04 Jul 11:46:49 11:50:37 30° 96° (E) 11:54:26 434.975-435.025
DUCHIFAT 1 04 Jul 11:52:53 11:57:00 54° 75° (ENE) 12:01:08 145.980
AAUSAT CUBESAT 2 04 Jul 11:56:52 11:59:37 17° 291° (WNW) 12:02:14 437.432
POLYITAN 1 04 Jul 11:57:35 12:01:47 65° 76° (ENE) 12:06:00 437.675
CUBEBUG 2 04 Jul 11:58:11 12:02:05 36° 287° (WNW) 12:06:00 437.445
ZACube-1 04 Jul 12:01:15 12:05:25 57° 284° (WNW) 12:09:37 437.345
Cosmos 2499 04 Jul 12:03:42 12:10:46 84° 96° (E) 12:17:55 435.465 / 435.565
UKube-1 04 Jul 12:07:49 12:12:00 47° 100° (E) 12:16:10 .
HO-68 04 Jul 12:09:50 12:15:10 22° 299° (WNW) 12:20:13 435.675
BUGSAT 1 04 Jul 12:10:48 12:14:58 57° 75° (ENE) 12:19:06 437.445
Oscar 11 04 Jul 12:11:10 12:14:50 26° 289° (WNW) 12:18:25 145.826/435.025
DELFI C3 04 Jul 12:13:09 12:16:48 32° 288° (WNW) 12:20:24 145.870
UNISAT 6 04 Jul 12:19:03 12:22:47 28° 264° (W) 12:26:27 437.425
50 SAT 04 Jul 12:19:33 12:23:18 44° 99° (E) 12:27:05 437.505
HUMSAT D 04 Jul 12:21:54 12:26:05 79° 283° (WNW) 12:30:17 437.325/437.525
RS-15 04 Jul 12:22:17 12:34:02 71° 56° (NE) 12:46:14 29.354- 29.394
AISAT 04 Jul 12:23:09 12:27:21 43° 99° (E) 12:31:32 437.250
QB50P2 04 Jul 12:27:24 12:31:33 53° 260° (W) 12:35:43 145.880/145.840
POPSAT HIP 1 04 Jul 12:28:10 12:32:20 54° 260° (W) 12:36:30 437.405
FUNcube-1 04 Jul 12:38:13 12:41:34 23° 290° (WNW) 12:44:52 145.935
CUBEBUG 1 04 Jul 12:41:49 12:45:50 36° 97° (E) 12:49:50 437.445
UWE-3 04 Jul 12:51:23 12:53:26 13° 293° (WNW) 12:55:17 435.000/436.395/437.385
ESTCUBE 1 04 Jul 12:54:17 12:58:48 62° 101° (E) 13:03:17 437.505/2401.250
VERMONT LUNAR 04 Jul 13:04:37 13:07:46 72° 202° (SSW) 13:10:55 437.305
QB50P1 04 Jul 13:08:33 13:11:39 19° 267° (W) 13:14:38 145.935-145.965
VELOX 1 04 Jul 13:12:28 13:16:47 52° 286° (WNW) 13:21:02 145.980
PHONESAT 2.4 04 Jul 13:19:07 13:22:30 54° 6° (N) 13:25:55 2401.200-2431.200
DX 1 04 Jul 13:23:21 13:26:43 22° 291° (WNW) 13:29:59 434.975-435.025
NANOSAT C BR1 04 Jul 13:23:58 13:26:07 13° 269° (W) 13:28:02 145.865
DUCHIFAT 1 04 Jul 13:31:52 13:33:12 11° 271° (W) 13:34:16 145.980
Oscar 19 04 Jul 13:41:37 13:46:06 32° 70° (ENE) 13:50:38 437.125/150
SPROUT 04 Jul 13:44:19 13:48:29 52° 100° (E) 13:52:40 437.525
UKube-1 04 Jul 13:45:23 13:47:45 14° 294° (WNW) 13:49:57 .
Gurwin Techsat 1B 04 Jul 13:49:41 13:50:46 11° 62° (ENE) 13:52:11 435.225
BUGSAT 1 04 Jul 13:49:59 13:50:51 10° 271° (W) 13:51:25 437.445
ITAMSAT 1 04 Jul 13:55:50 13:57:38 12° 62° (ENE) 13:59:44 435.822/435.867
50 SAT 04 Jul 13:55:52 13:57:35 12° 292° (WNW) 13:59:07 437.505
AISAT 04 Jul 14:00:51 14:03:37 16° 293° (WNW) 14:06:11 437.250
Cosmos 2499 04 Jul 14:01:13 14:05:04 14° 297° (WNW) 14:08:28 435.465 / 435.565
ISS 04 Jul 14:16:19 14:17:43 12° 20° (NNE) 14:19:12 145.825
CUBEBUG 1 04 Jul 14:18:54 14:21:57 18° 292° (WNW) 14:24:50 437.445
TISAT 1 04 Jul 14:26:29 14:30:41 76° 283° (WNW) 14:34:50 437.305
ESTCUBE 1 04 Jul 14:33:16 14:35:12 12° 295° (WNW) 14:36:54 437.505/2401.250
RS-15 04 Jul 14:35:49 14:45:50 32° 254° (WSW) 14:55:39 29.354- 29.394
VERMONT LUNAR 04 Jul 14:42:33 14:44:22 14° 214° (SW) 14:46:07 437.305
BEESAT 04 Jul 14:48:44 14:52:46 27° 95° (E) 14:56:51 436.000
PHONESAT 2.4 04 Jul 14:57:10 15:00:35 58° 203° (SSW) 15:04:00 2401.200-2431.200
AO-7 04 Jul 14:57:27 15:02:17 18° 54° (NE) 15:07:31 29.400- 29.500
SWISSCUBE 04 Jul 15:03:57 15:08:31 43° 99° (E) 15:13:05 437.505
ITUPSAT 1 04 Jul 15:09:12 15:13:48 43° 99° (E) 15:18:23 437.325
Oscar 19 04 Jul 15:21:05 15:25:28 27° 265° (W) 15:29:47 437.125/150
SPROUT 04 Jul 15:22:13 15:24:10 13° 294° (WNW) 15:25:55 437.525
YUBILEINY 04 Jul 15:22:18 15:30:54 59° 78° (ENE) 15:39:33 435.215
Gurwin Techsat 1B 04 Jul 15:24:44 15:30:04 89° 77° (ENE) 15:35:25 435.225
ITAMSAT 1 04 Jul 15:31:18 15:36:31 82° 257° (WSW) 15:41:48 435.822/435.867
AIST 1 04 Jul 15:31:33 15:32:20 11° 86° (E) 15:33:23
JAS-2 04 Jul 15:37:01 15:41:18 28° 68° (ENE) 15:45:49 435.910
Cosmos 2491 04 Jul 15:41:05 15:49:06 42° 88° (E) 15:57:14 435.465 / 435.565
ISS 04 Jul 15:51:28 15:54:41 63° 39° (NE) 15:57:53 145.825
HORYU 2 04 Jul 16:01:32 16:05:09 26° 70° (ENE) 16:08:52 437.375
KKS-1 04 Jul 16:04:01 16:07:47 27° 96° (E) 16:11:34 437.445
BEESAT 2 04 Jul 16:05:24 16:05:54 10° 41° (NE) 16:06:37 435.950
PCSat 04 Jul 16:18:51 16:23:59 47° 112° (ESE) 16:29:12 145.827
BEESAT 04 Jul 16:26:26 16:30:35 29° 290° (WNW) 16:34:38 436.000
PHONESAT 2.4 04 Jul 16:36:47 16:38:11 12° 216° (SW) 16:39:30 2401.200-2431.200
SWISSCUBE 04 Jul 16:42:41 16:46:05 19° 293° (WNW) 16:49:19 437.505
AO-7 04 Jul 16:45:39 16:53:59 82° 71° (ENE) 17:02:24 29.400- 29.500
ITUPSAT 1 04 Jul 16:48:00 16:51:23 19° 293° (WNW) 16:54:36 437.325
STARS 04 Jul 16:55:40 17:00:01 63° 101° (E) 17:04:21 437.465
SO-50 04 Jul 17:00:49 17:04:42 27° 112° (ESE) 17:08:46 436.795
AIST 1 04 Jul 17:05:12 17:09:31 56° 280° (W) 17:13:51
O/OREOS (USA 219) 04 Jul 17:09:08 17:10:37 12° 53° (NE) 17:12:20 437.305
YUBILEINY 04 Jul 17:20:07 17:27:15 28° 275° (W) 17:34:06 435.215
Cosmos 2504 04 Jul 17:20:56 17:27:43 36° 75° (ENE) 17:35:03 435.465 / 435.565
JAS-2 04 Jul 17:21:53 17:26:26 30° 265° (W) 17:31:01 435.910
AIST 2 04 Jul 17:22:13 17:24:50 16° 46° (NE) 17:27:32 435.215
BEESAT 3 04 Jul 17:28:19 17:32:23 88° 56° (NE) 17:36:22 437.485
ISS 04 Jul 17:29:46 17:30:44 11° 232° (SW) 17:31:33 145.825
Cosmos 2491 04 Jul 17:37:49 17:46:01 40° 287° (WNW) 17:54:06 435.465 / 435.565
HORYU 2 04 Jul 17:38:04 17:41:45 25° 265° (W) 17:45:23 437.375
BEESAT 2 04 Jul 17:40:32 17:44:38 87° 243° (WSW) 17:48:39 435.950
KKS-1 04 Jul 17:40:42 17:44:20 24° 290° (WNW) 17:47:51 437.445
MOZHAYETS 4 04 Jul 17:57:27 18:01:58 49° 99° (E) 18:06:28
PCSat 04 Jul 18:03:18 18:07:41 24° 310° (NW) 18:11:58 145.827
CUTE-I 04 Jul 18:08:23 18:12:08 20° 66° (ENE) 18:16:04 437.470
STARS 04 Jul 18:34:35 18:36:00 11° 295° (WNW) 18:37:10 437.465
SO-50 04 Jul 18:40:49 18:45:08 33° 309° (NW) 18:49:33 436.795
Cubesat XI-IV 04 Jul 18:41:12 18:46:09 41° 71° (ENE) 18:51:12 437.490
AO-7 04 Jul 18:42:08 18:47:49 19° 270° (W) 18:53:02 29.400- 29.500
O/OREOS (USA 219) 04 Jul 18:46:06 18:50:38 70° 251° (WSW) 18:55:08 437.305
JUGNU 04 Jul 18:48:09 18:50:59 14° 178° (S) 18:53:50 437.505
AIST 2 04 Jul 18:59:40 19:03:44 49° 244° (WSW) 19:07:42 435.215
